User: anonymous   Login
Location: Bartlow
(52.0833°N, 0.3167°E)
Time: 10:27:27
(UTC+00:00)
Language:

Cosmos 405 Rocket - Orbit

View from above orbital plane
View from above orbital plane
View from above satellite
View from above satellite

Ground track
Ground track

The orbit data is extracted from the following two-line orbital elements,

1 05118U 71028B   24056.93842985  .00011898  00000-0  45802-3 0  9997
2 05118  81.2497 220.6504 0037575 350.8189   9.2352 15.25577166874317
Epoch (UTC): 25 February 2024 22:31:20
Eccentricity: 0.0037575
inclination: 81.2497°
perigee height: 463 km
apogee height: 515 km
right ascension of ascending node: 220.6504°
argument of perigee: 350.8189°
revolutions per day: 15.25577166
mean anomaly at epoch: 9.2352°
orbit number at epoch: 87431

The dashed part of the orbit path shows where the satellite is in the earth's shadow,  

DLR